Location: Oriwa
(40.7500°S, 175.3333°E)
Time: 14:10:05
(UTC+00:00)

PSLV R/B - Pass Details

Date: 03 February 2023
Orbit: 587 x 621 km, 98.0° (Epoch: 31 March)

Event Time Altitude Azimuth Distance (km) Brightness Sun altitude
Rises 16:01:19 0° 27° (NNE) 2,814 6.8 -15.1°
Reaches altitude 10° 16:03:31 10° 32° (NNE) 1,922 6.0 -14.8°
Maximum altitude 16:07:32 50° 107° (ESE) 771 4.5 -14.2°
Drops below altitude 10° 16:11:38 10° 182° (S) 1,957 6.6 -13.5°
Sets 16:13:52 0° 187° (S) 2,872 7.4 -13.2°
